contact:dominique.lefevre@mio.osupytheas.fr, maurice.libes@osupytheas.fr, didier.mallarino@osupytheas.fr
Project:EMSO http://www.emso-fr.org/EMSO-France
Depth: 2436.0 m
Title:EMSO Ligure Ouest : Data MII capteur CSTAR
DateTime,Latitude,Longitude,Instrument_Serial,Reference_Counts,Signal_Counts,Corrected_Signal_raw_counts,Calculated_Beam_c_inverse_meters,Internal_thermistor_counts
DateTime,Latitude,Longitude,Instrument_Serial,Reference_Counts,Signal_Counts,Corrected_Signal_raw_counts,Calculated_Beam_c_inverse_meters,Internal_thermistor_counts
2022-02-09T00:01:22,42.805,6.029,CST-1368DR,4911,6148,13369,0.621,551
2022-02-09T00:04:24,42.805,6.029,CST-1368DR,4911,6150,13373,0.620,551
2022-02-09T00:07:25,42.805,6.029,CST-1368DR,4911,6150,13373,0.620,551
2022-02-09T00:10:27,42.805,6.029,CST-1368DR,4911,6150,13372,0.621,551
2022-02-09T00:13:29,42.805,6.029,CST-1368DR,4911,6150,13372,0.621,551
2022-02-09T00:16:30,42.805,6.029,CST-1368DR,4911,6150,13373,0.620,551
2022-02-09T00:19:32,42.805,6.029,CST-1368DR,4911,6150,13373,0.620,551
2022-02-09T00:22:33,42.805,6.029,CST-1368DR,4911,6150,13373,0.620,551
2022-02-09T00:25:35,42.805,6.029,CST-1368DR,4911,6150,13373,0.620,551
2022-02-09T00:28:36,42.805,6.029,CST-1368DR,4911,6148,13368,0.622,551
2022-02-09T00:31:38,42.805,6.029,CST-1368DR,4911,6149,13371,0.621,551
2022-02-09T00:34:40,42.805,6.029,CST-1368DR,4911,6150,13372,0.621,551
2022-02-09T00:37:41,42.805,6.029,CST-1368DR,4911,6150,13373,0.620,551
2022-02-09T00:40:43,42.805,6.029,CST-1368DR,4911,6150,13373,0.620,551
2022-02-09T00:43:44,42.805,6.029,CST-1368DR,4911,6151,13374,0.620,551
2022-02-09T00:46:46,42.805,6.029,CST-1368DR,4911,6150,13373,0.620,551
2022-02-09T00:49:47,42.805,6.029,CST-1368DR,4911,6151,13374,0.620,551
2022-02-09T00:52:49,42.805,6.029,CST-1368DR,4911,6150,13373,0.620,551
2022-02-09T00:55:51,42.805,6.029,CST-1368DR,4911,6151,13374,0.620,551
2022-02-09T00:58:52,42.805,6.029,CST-1368DR,4911,6150,13372,0.621,551
2022-02-09T01:01:54,42.805,6.029,CST-1368DR,4911,6150,13373,0.620,551
2022-02-09T01:04:55,42.805,6.029,CST-1368DR,4911,6151,13374,0.620,551
2022-02-09T01:07:57,42.805,6.029,CST-1368DR,4911,6150,13373,0.620,551
2022-02-09T01:10:59,42.805,6.029,CST-1368DR,4911,6150,13373,0.620,551
2022-02-09T01:14:00,42.805,6.029,CST-1368DR,4911,6150,13373,0.620,551
2022-02-09T01:17:02,42.805,6.029,CST-1368DR,4911,6150,13373,0.620,551
2022-02-09T01:20:03,42.805,6.029,CST-1368DR,4911,6150,13372,0.621,551
2022-02-09T01:23:05,42.805,6.029,CST-1368DR,4911,6147,13367,0.622,551
2022-02-09T01:26:06,42.805,6.029,CST-1368DR,4911,6150,13372,0.621,551
2022-02-09T01:29:08,42.805,6.029,CST-1368DR,4911,6149,13371,0.621,551
2022-02-09T01:32:10,42.805,6.029,CST-1368DR,4911,6149,13371,0.621,551
2022-02-09T01:35:11,42.805,6.029,CST-1368DR,4911,6150,13372,0.621,551
2022-02-09T01:38:13,42.805,6.029,CST-1368DR,4911,6150,13373,0.620,551
2022-02-09T01:41:14,42.805,6.029,CST-1368DR,4911,6150,13372,0.621,551
2022-02-09T01:44:16,42.805,6.029,CST-1368DR,4911,6150,13373,0.620,551
2022-02-09T01:47:17,42.805,6.029,CST-1368DR,4911,6150,13372,0.621,551
2022-02-09T01:50:19,42.805,6.029,CST-1368DR,4911,6150,13372,0.621,551
2022-02-09T01:53:21,42.805,6.029,CST-1368DR,4911,6148,13369,0.621,551
2022-02-09T01:56:22,42.805,6.029,CST-1368DR,4911,6150,13372,0.621,551
2022-02-09T01:59:24,42.805,6.029,CST-1368DR,4911,6150,13372,0.621,550
2022-02-09T02:02:25,42.805,6.029,CST-1368DR,4911,6150,13372,0.621,551
2022-02-09T02:05:27,42.805,6.029,CST-1368DR,4911,6149,13371,0.621,551
2022-02-09T02:08:29,42.805,6.029,CST-1368DR,4911,6150,13372,0.621,551
2022-02-09T02:11:30,42.805,6.029,CST-1368DR,4911,6150,13373,0.620,551
2022-02-09T02:14:32,42.805,6.029,CST-1368DR,4911,6150,13373,0.620,551
2022-02-09T02:17:33,42.805,6.029,CST-1368DR,4911,6150,13372,0.621,551
2022-02-09T02:20:35,42.805,6.029,CST-1368DR,4911,6150,13372,0.621,551
2022-02-09T02:23:36,42.805,6.029,CST-1368DR,4911,6150,13372,0.621,551
2022-02-09T02:26:38,42.805,6.029,CST-1368DR,4911,6149,13371,0.621,551
2022-02-09T02:29:40,42.805,6.029,CST-1368DR,4911,6149,13371,0.621,551
2022-02-09T02:32:41,42.805,6.029,CST-1368DR,4911,6148,13369,0.621,551
2022-02-09T02:35:43,42.805,6.029,CST-1368DR,4911,6147,13365,0.623,551
2022-02-09T02:38:44,42.805,6.029,CST-1368DR,4911,6147,13365,0.623,551
2022-02-09T02:41:46,42.805,6.029,CST-1368DR,4911,6146,13364,0.623,551
2022-02-09T02:44:48,42.805,6.029,CST-1368DR,4911,6148,13368,0.622,551
2022-02-09T02:47:49,42.805,6.029,CST-1368DR,4911,6150,13372,0.621,551
2022-02-09T02:50:51,42.805,6.029,CST-1368DR,4911,6149,13371,0.621,551
2022-02-09T02:53:52,42.805,6.029,CST-1368DR,4911,6150,13372,0.621,551
2022-02-09T02:56:54,42.805,6.029,CST-1368DR,4911,6149,13371,0.621,551
2022-02-09T02:59:55,42.805,6.029,CST-1368DR,4911,6144,13359,0.624,551
2022-02-09T03:02:57,42.805,6.029,CST-1368DR,4911,6149,13370,0.621,551
2022-02-09T03:05:59,42.805,6.029,CST-1368DR,4911,6149,13371,0.621,551
2022-02-09T03:09:00,42.805,6.029,CST-1368DR,4911,6149,13370,0.621,551
2022-02-09T03:12:02,42.805,6.029,CST-1368DR,4911,6149,13371,0.621,551
2022-02-09T03:15:03,42.805,6.029,CST-1368DR,4911,6150,13372,0.621,551
2022-02-09T03:18:05,42.805,6.029,CST-1368DR,4911,6149,13370,0.621,551
2022-02-09T03:21:06,42.805,6.029,CST-1368DR,4911,6148,13367,0.622,551
2022-02-09T03:24:08,42.805,6.029,CST-1368DR,4911,6148,13368,0.622,551
2022-02-09T03:27:10,42.805,6.029,CST-1368DR,4911,6149,13371,0.621,551
2022-02-09T03:30:11,42.805,6.029,CST-1368DR,4911,6148,13368,0.622,551
2022-02-09T03:33:13,42.805,6.029,CST-1368DR,4911,6149,13371,0.621,551
2022-02-09T03:36:14,42.805,6.029,CST-1368DR,4911,6150,13372,0.621,551
2022-02-09T03:39:16,42.805,6.029,CST-1368DR,4911,6150,13372,0.621,551
2022-02-09T03:42:18,42.805,6.029,CST-1368DR,4911,6148,13368,0.622,551
2022-02-09T03:45:19,42.805,6.029,CST-1368DR,4911,6150,13372,0.621,551
2022-02-09T03:48:21,42.805,6.029,CST-1368DR,4911,6148,13368,0.622,551
2022-02-09T03:51:22,42.805,6.029,CST-1368DR,4911,6149,13370,0.621,551
2022-02-09T03:54:24,42.805,6.029,CST-1368DR,4911,6149,13371,0.621,551
2022-02-09T03:57:25,42.805,6.029,CST-1368DR,4911,6148,13368,0.622,551
2022-02-09T04:00:27,42.805,6.029,CST-1368DR,4911,6148,13369,0.621,551
2022-02-09T04:03:29,42.805,6.029,CST-1368DR,4911,6149,13370,0.621,551
2022-02-09T04:06:30,42.805,6.029,CST-1368DR,4911,6148,13368,0.622,551
2022-02-09T04:09:32,42.805,6.029,CST-1368DR,4911,6148,13369,0.621,551
2022-02-09T04:12:33,42.805,6.029,CST-1368DR,4911,6149,13371,0.621,551
2022-02-09T04:15:35,42.805,6.029,CST-1368DR,4911,6148,13368,0.622,551
2022-02-09T04:18:37,42.805,6.029,CST-1368DR,4911,6148,13369,0.621,551
2022-02-09T04:21:38,42.805,6.029,CST-1368DR,4911,6148,13368,0.622,550
2022-02-09T04:24:40,42.805,6.029,CST-1368DR,4911,6147,13367,0.622,551
2022-02-09T04:27:41,42.805,6.029,CST-1368DR,4911,6148,13367,0.622,551
2022-02-09T04:30:43,42.805,6.029,CST-1368DR,4911,6148,13368,0.622,551
2022-02-09T04:33:44,42.805,6.029,CST-1368DR,4911,6148,13368,0.622,551
2022-02-09T04:36:46,42.805,6.029,CST-1368DR,4911,6149,13370,0.621,551
2022-02-09T04:39:48,42.805,6.029,CST-1368DR,4911,6148,13368,0.622,551
2022-02-09T04:42:49,42.805,6.029,CST-1368DR,4911,6148,13369,0.621,550
2022-02-09T04:45:51,42.805,6.029,CST-1368DR,4911,6149,13370,0.621,551
2022-02-09T04:48:52,42.805,6.029,CST-1368DR,4911,6149,13371,0.621,551
2022-02-09T04:51:54,42.805,6.029,CST-1368DR,4911,6148,13368,0.622,551
2022-02-09T04:54:55,42.805,6.029,CST-1368DR,4910,6147,13368,0.622,551
2022-02-09T04:57:57,42.805,6.029,CST-1368DR,4911,6148,13369,0.621,551
2022-02-09T05:00:59,42.805,6.029,CST-1368DR,4910,6149,13373,0.620,551
2022-02-09T05:04:00,42.805,6.029,CST-1368DR,4910,6148,13371,0.621,551
2022-02-09T05:07:02,42.805,6.029,CST-1368DR,4911,6148,13369,0.621,551
2022-02-09T05:10:03,42.805,6.029,CST-1368DR,4910,6148,13371,0.621,551
2022-02-09T05:13:05,42.805,6.029,CST-1368DR,4911,6149,13371,0.621,551
2022-02-09T05:16:07,42.805,6.029,CST-1368DR,4911,6148,13368,0.622,551
2022-02-09T05:19:08,42.805,6.029,CST-1368DR,4910,6148,13371,0.621,551
2022-02-09T05:22:10,42.805,6.029,CST-1368DR,4910,6149,13373,0.620,551
2022-02-09T05:25:11,42.805,6.029,CST-1368DR,4910,6148,13370,0.621,551
2022-02-09T05:28:13,42.805,6.029,CST-1368DR,4910,6146,13366,0.622,551
2022-02-09T05:31:14,42.805,6.029,CST-1368DR,4910,6148,13371,0.621,551
2022-02-09T05:34:16,42.805,6.029,CST-1368DR,4910,6148,13371,0.621,551
2022-02-09T05:37:18,42.805,6.029,CST-1368DR,4910,6148,13371,0.621,551
2022-02-09T05:40:19,42.805,6.029,CST-1368DR,4911,6149,13371,0.621,551
2022-02-09T05:43:21,42.805,6.029,CST-1368DR,4910,6148,13371,0.621,551
2022-02-09T05:46:22,42.805,6.029,CST-1368DR,4910,6148,13372,0.621,551
2022-02-09T05:49:24,42.805,6.029,CST-1368DR,4911,6148,13368,0.622,551
2022-02-09T05:52:26,42.805,6.029,CST-1368DR,4910,6148,13371,0.621,551
2022-02-09T05:55:27,42.805,6.029,CST-1368DR,4910,6148,13372,0.621,551
2022-02-09T05:58:29,42.805,6.029,CST-1368DR,4910,6148,13370,0.621,551
2022-02-09T06:01:30,42.805,6.029,CST-1368DR,4910,6148,13372,0.621,551
2022-02-09T06:04:32,42.805,6.029,CST-1368DR,4910,6148,13371,0.621,551
2022-02-09T06:07:33,42.805,6.029,CST-1368DR,4911,6148,13368,0.622,551
2022-02-09T06:10:35,42.805,6.029,CST-1368DR,4910,6148,13371,0.621,551
2022-02-09T06:13:37,42.805,6.029,CST-1368DR,4910,6148,13372,0.621,551
2022-02-09T06:16:38,42.805,6.029,CST-1368DR,4910,6147,13368,0.622,551
2022-02-09T06:19:40,42.805,6.029,CST-1368DR,4910,6147,13368,0.622,551
2022-02-09T06:22:41,42.805,6.029,CST-1368DR,4910,6148,13370,0.621,551
2022-02-09T06:25:43,42.805,6.029,CST-1368DR,4910,6147,13369,0.621,551
2022-02-09T06:28:44,42.805,6.029,CST-1368DR,4910,6147,13368,0.622,551
2022-02-09T06:31:46,42.805,6.029,CST-1368DR,4910,6148,13370,0.621,551
2022-02-09T06:34:48,42.805,6.029,CST-1368DR,4910,6147,13369,0.621,551
2022-02-09T06:37:49,42.805,6.029,CST-1368DR,4910,6147,13369,0.621,551
2022-02-09T06:40:51,42.805,6.029,CST-1368DR,4910,6148,13370,0.621,551
2022-02-09T06:43:52,42.805,6.029,CST-1368DR,4910,6147,13369,0.621,551
2022-02-09T06:46:54,42.805,6.029,CST-1368DR,4910,6147,13368,0.622,551
2022-02-09T06:49:56,42.805,6.029,CST-1368DR,4910,6147,13369,0.621,551
2022-02-09T06:52:57,42.805,6.029,CST-1368DR,4910,6147,13369,0.621,551
2022-02-09T06:55:59,42.805,6.029,CST-1368DR,4910,6147,13369,0.621,551
2022-02-09T06:59:00,42.805,6.029,CST-1368DR,4910,6143,13360,0.624,551
2022-02-09T07:02:02,42.805,6.029,CST-1368DR,4910,6148,13370,0.621,551
2022-02-09T07:05:03,42.805,6.029,CST-1368DR,4910,6146,13367,0.622,551
2022-02-09T07:08:05,42.805,6.029,CST-1368DR,4910,6148,13371,0.621,551
2022-02-09T07:11:07,42.805,6.029,CST-1368DR,4910,6148,13371,0.621,551
2022-02-09T07:14:08,42.805,6.029,CST-1368DR,4910,6148,13370,0.621,551
2022-02-09T07:17:10,42.805,6.029,CST-1368DR,4910,6148,13370,0.621,551
2022-02-09T07:20:11,42.805,6.029,CST-1368DR,4910,6148,13370,0.621,551
2022-02-09T07:23:13,42.805,6.029,CST-1368DR,4910,6147,13369,0.621,551
2022-02-09T07:26:15,42.805,6.029,CST-1368DR,4910,6147,13369,0.621,551
2022-02-09T07:29:16,42.805,6.029,CST-1368DR,4910,6147,13368,0.622,551
2022-02-09T07:32:18,42.805,6.029,CST-1368DR,4910,6147,13368,0.622,551
2022-02-09T07:35:19,42.805,6.029,CST-1368DR,4910,6145,13363,0.623,551
2022-02-09T07:38:21,42.805,6.029,CST-1368DR,4910,6147,13369,0.621,551
2022-02-09T07:41:22,42.805,6.029,CST-1368DR,4910,6147,13369,0.621,551
2022-02-09T07:44:24,42.805,6.029,CST-1368DR,4910,6147,13368,0.622,551
2022-02-09T07:47:26,42.805,6.029,CST-1368DR,4910,6148,13371,0.621,551
2022-02-09T07:50:27,42.805,6.029,CST-1368DR,4910,6147,13369,0.621,551
2022-02-09T07:53:29,42.805,6.029,CST-1368DR,4910,6148,13370,0.621,551
2022-02-09T07:56:30,42.805,6.029,CST-1368DR,4910,6147,13368,0.622,551
2022-02-09T07:59:32,42.805,6.029,CST-1368DR,4910,6146,13367,0.622,551
2022-02-09T08:02:34,42.805,6.029,CST-1368DR,4910,6146,13366,0.622,551
2022-02-09T08:05:35,42.805,6.029,CST-1368DR,4910,6147,13368,0.622,551
2022-02-09T08:08:37,42.805,6.029,CST-1368DR,4910,6147,13368,0.622,551
2022-02-09T08:11:38,42.805,6.029,CST-1368DR,4910,6147,13368,0.622,551
2022-02-09T08:14:40,42.805,6.029,CST-1368DR,4910,6147,13369,0.621,551
2022-02-09T08:17:41,42.805,6.029,CST-1368DR,4910,6146,13367,0.622,551
2022-02-09T08:20:43,42.805,6.029,CST-1368DR,4910,6147,13368,0.622,551
2022-02-09T08:23:45,42.805,6.029,CST-1368DR,4910,6147,13368,0.622,551
2022-02-09T08:26:46,42.805,6.029,CST-1368DR,4910,6145,13363,0.623,551
2022-02-09T08:29:48,42.805,6.029,CST-1368DR,4910,6146,13367,0.622,551
2022-02-09T08:32:49,42.805,6.029,CST-1368DR,4910,6147,13368,0.622,551
2022-02-09T08:35:51,42.805,6.029,CST-1368DR,4910,6147,13369,0.621,551
2022-02-09T08:38:52,42.805,6.029,CST-1368DR,4910,6146,13366,0.622,551
2022-02-09T08:41:54,42.805,6.029,CST-1368DR,4910,6146,13367,0.622,551
2022-02-09T08:44:56,42.805,6.029,CST-1368DR,4910,6147,13369,0.621,551
2022-02-09T08:47:57,42.805,6.029,CST-1368DR,4910,6147,13368,0.622,551
2022-02-09T08:50:59,42.805,6.029,CST-1368DR,4910,6144,13362,0.624,551
2022-02-09T08:54:00,42.805,6.029,CST-1368DR,4910,6146,13367,0.622,551
2022-02-09T08:57:02,42.805,6.029,CST-1368DR,4910,6146,13366,0.622,551
2022-02-09T09:00:04,42.805,6.029,CST-1368DR,4910,6147,13368,0.622,551
2022-02-09T09:03:05,42.805,6.029,CST-1368DR,4910,6146,13366,0.622,551
2022-02-09T09:06:07,42.805,6.029,CST-1368DR,4910,6146,13367,0.622,551
2022-02-09T09:09:08,42.805,6.029,CST-1368DR,4910,6145,13365,0.623,551
2022-02-09T09:12:10,42.805,6.029,CST-1368DR,4910,6147,13369,0.621,551
2022-02-09T09:15:11,42.805,6.029,CST-1368DR,4910,6146,13366,0.622,551
2022-02-09T09:18:13,42.805,6.029,CST-1368DR,4910,6146,13367,0.622,551
2022-02-09T09:21:15,42.805,6.029,CST-1368DR,4910,6147,13368,0.622,551
2022-02-09T09:24:16,42.805,6.029,CST-1368DR,4910,6147,13368,0.622,551
2022-02-09T09:27:18,42.805,6.029,CST-1368DR,4910,6146,13366,0.622,551
2022-02-09T09:30:19,42.805,6.029,CST-1368DR,4910,6146,13367,0.622,551
2022-02-09T09:33:21,42.805,6.029,CST-1368DR,4910,6145,13365,0.623,551
2022-02-09T09:36:22,42.805,6.029,CST-1368DR,4910,6146,13366,0.622,551
2022-02-09T09:39:24,42.805,6.029,CST-1368DR,4910,6146,13366,0.622,551
2022-02-09T09:42:26,42.805,6.029,CST-1368DR,4910,6146,13366,0.622,551
2022-02-09T09:45:27,42.805,6.029,CST-1368DR,4910,6145,13364,0.623,551
2022-02-09T09:48:29,42.805,6.029,CST-1368DR,4910,6146,13367,0.622,551
2022-02-09T09:51:30,42.805,6.029,CST-1368DR,4910,6146,13367,0.622,551
2022-02-09T09:54:32,42.805,6.029,CST-1368DR,4910,6146,13366,0.622,551
2022-02-09T09:57:34,42.805,6.029,CST-1368DR,4910,6146,13367,0.622,551
2022-02-09T10:00:35,42.805,6.029,CST-1368DR,4910,6146,13367,0.622,551
2022-02-09T10:03:37,42.805,6.029,CST-1368DR,4910,6146,13367,0.622,551
2022-02-09T10:06:38,42.805,6.029,CST-1368DR,4910,6145,13364,0.623,551
2022-02-09T10:09:40,42.805,6.029,CST-1368DR,4910,6145,13365,0.623,551
2022-02-09T10:12:41,42.805,6.029,CST-1368DR,4910,6145,13364,0.623,551
2022-02-09T10:15:43,42.805,6.029,CST-1368DR,4910,6146,13366,0.622,551
2022-02-09T10:18:45,42.805,6.029,CST-1368DR,4910,6144,13362,0.624,551
2022-02-09T10:21:46,42.805,6.029,CST-1368DR,4910,6145,13364,0.623,551
2022-02-09T10:24:48,42.805,6.029,CST-1368DR,4910,6144,13363,0.623,551
2022-02-09T10:27:49,42.805,6.029,CST-1368DR,4910,6145,13364,0.623,551
2022-02-09T10:30:51,42.805,6.029,CST-1368DR,4910,6144,13363,0.623,551
2022-02-09T10:33:52,42.805,6.029,CST-1368DR,4910,6145,13364,0.623,551
2022-02-09T10:36:54,42.805,6.029,CST-1368DR,4910,6146,13366,0.622,551
2022-02-09T10:39:56,42.805,6.029,CST-1368DR,4910,6145,13363,0.623,551
2022-02-09T10:42:57,42.805,6.029,CST-1368DR,4910,6144,13362,0.624,551
2022-02-09T10:45:59,42.805,6.029,CST-1368DR,4910,6145,13363,0.623,551
2022-02-09T10:49:00,42.805,6.029,CST-1368DR,4910,6144,13362,0.624,551
2022-02-09T10:52:02,42.805,6.029,CST-1368DR,4910,6145,13365,0.623,551
2022-02-09T10:55:04,42.805,6.029,CST-1368DR,4910,6145,13364,0.623,551
2022-02-09T10:58:05,42.805,6.029,CST-1368DR,4910,6145,13364,0.623,551
2022-02-09T11:01:07,42.805,6.029,CST-1368DR,4910,6144,13362,0.624,551
2022-02-09T11:04:08,42.805,6.029,CST-1368DR,4910,6144,13362,0.624,551
2022-02-09T11:07:10,42.805,6.029,CST-1368DR,4910,6144,13362,0.624,551
2022-02-09T11:10:11,42.805,6.029,CST-1368DR,4910,6143,13360,0.624,551
2022-02-09T11:13:13,42.805,6.029,CST-1368DR,4910,6144,13362,0.624,551
2022-02-09T11:16:15,42.805,6.029,CST-1368DR,4910,6143,13360,0.624,551
2022-02-09T11:19:16,42.805,6.029,CST-1368DR,4910,6143,13360,0.624,551
2022-02-09T11:22:18,42.805,6.029,CST-1368DR,4910,6143,13361,0.624,551
2022-02-09T11:25:19,42.805,6.029,CST-1368DR,4910,6144,13361,0.624,551
2022-02-09T11:28:21,42.805,6.029,CST-1368DR,4910,6144,13362,0.624,551
2022-02-09T11:31:23,42.805,6.029,CST-1368DR,4910,6144,13362,0.624,551
2022-02-09T11:34:24,42.805,6.029,CST-1368DR,4910,6144,13363,0.623,551
2022-02-09T11:37:26,42.805,6.029,CST-1368DR,4910,6145,13365,0.623,551
2022-02-09T11:40:27,42.805,6.029,CST-1368DR,4910,6144,13363,0.623,551
2022-02-09T11:43:29,42.805,6.029,CST-1368DR,4910,6145,13364,0.623,551
2022-02-09T11:46:30,42.805,6.029,CST-1368DR,4910,6144,13363,0.623,551
2022-02-09T11:49:32,42.805,6.029,CST-1368DR,4910,6144,13362,0.624,551
2022-02-09T11:52:34,42.805,6.029,CST-1368DR,4910,6143,13361,0.624,551
2022-02-09T11:55:35,42.805,6.029,CST-1368DR,4910,6144,13362,0.624,551
2022-02-09T11:58:37,42.805,6.029,CST-1368DR,4910,6144,13362,0.624,551
2022-02-09T12:01:38,42.805,6.029,CST-1368DR,4910,6144,13362,0.624,551
2022-02-09T12:04:40,42.805,6.029,CST-1368DR,4910,6144,13362,0.624,551
2022-02-09T12:07:42,42.805,6.029,CST-1368DR,4910,6144,13362,0.624,551
2022-02-09T12:10:43,42.805,6.029,CST-1368DR,4910,6143,13360,0.624,551
2022-02-09T12:13:45,42.805,6.029,CST-1368DR,4910,6144,13363,0.623,551
2022-02-09T12:16:46,42.805,6.029,CST-1368DR,4910,6144,13361,0.624,551
2022-02-09T12:19:48,42.805,6.029,CST-1368DR,4910,6144,13361,0.624,551
2022-02-09T12:22:49,42.805,6.029,CST-1368DR,4910,6144,13363,0.623,551
2022-02-09T12:25:51,42.805,6.029,CST-1368DR,4910,6144,13362,0.624,551
2022-02-09T12:28:53,42.805,6.029,CST-1368DR,4910,6143,13360,0.624,551
2022-02-09T12:31:54,42.805,6.029,CST-1368DR,4910,6143,13361,0.624,551
2022-02-09T12:34:56,42.805,6.029,CST-1368DR,4910,6144,13361,0.624,551
2022-02-09T12:37:57,42.805,6.029,CST-1368DR,4910,6144,13362,0.624,551
2022-02-09T12:40:59,42.805,6.029,CST-1368DR,4910,6144,13362,0.624,551
2022-02-09T12:44:00,42.805,6.029,CST-1368DR,4910,6144,13362,0.624,551
2022-02-09T12:47:02,42.805,6.029,CST-1368DR,4910,6144,13361,0.624,551
2022-02-09T12:50:04,42.805,6.029,CST-1368DR,4910,6143,13361,0.624,551
2022-02-09T12:53:05,42.805,6.029,CST-1368DR,4910,6144,13362,0.624,551
2022-02-09T12:56:07,42.805,6.029,CST-1368DR,4910,6143,13360,0.624,551
2022-02-09T12:59:08,42.805,6.029,CST-1368DR,4910,6144,13362,0.624,551
2022-02-09T13:02:10,42.805,6.029,CST-1368DR,4910,6143,13360,0.624,551
2022-02-09T13:05:12,42.805,6.029,CST-1368DR,4910,6143,13360,0.624,551
2022-02-09T13:08:13,42.805,6.029,CST-1368DR,4910,6144,13361,0.624,551
2022-02-09T13:11:15,42.805,6.029,CST-1368DR,4910,6143,13359,0.624,551
2022-02-09T13:14:16,42.805,6.029,CST-1368DR,4910,6144,13361,0.624,551
2022-02-09T13:17:18,42.805,6.029,CST-1368DR,4910,6144,13361,0.624,551
2022-02-09T13:20:19,42.805,6.029,CST-1368DR,4910,6143,13361,0.624,551
2022-02-09T13:23:21,42.805,6.029,CST-1368DR,4910,6143,13360,0.624,551
2022-02-09T13:26:23,42.805,6.029,CST-1368DR,4910,6143,13360,0.624,551
2022-02-09T13:29:24,42.805,6.029,CST-1368DR,4910,6142,13357,0.625,551
2022-02-09T13:32:26,42.805,6.029,CST-1368DR,4910,6141,13355,0.626,551
2022-02-09T13:35:27,42.805,6.029,CST-1368DR,4910,6143,13359,0.624,551
2022-02-09T13:38:29,42.805,6.029,CST-1368DR,4910,6142,13359,0.624,551
2022-02-09T13:41:30,42.805,6.029,CST-1368DR,4910,6142,13359,0.624,551
2022-02-09T13:44:32,42.805,6.029,CST-1368DR,4910,6142,13359,0.624,551
2022-02-09T13:47:34,42.805,6.029,CST-1368DR,4910,6142,13357,0.625,551
2022-02-09T13:50:35,42.805,6.029,CST-1368DR,4910,6142,13358,0.625,551
2022-02-09T13:53:37,42.805,6.029,CST-1368DR,4910,6142,13359,0.624,551
2022-02-09T13:56:38,42.805,6.029,CST-1368DR,4910,6143,13360,0.624,551
2022-02-09T13:59:40,42.805,6.029,CST-1368DR,4910,6142,13359,0.624,551
2022-02-09T14:02:42,42.805,6.029,CST-1368DR,4910,6142,13357,0.625,550
2022-02-09T14:05:43,42.805,6.029,CST-1368DR,4910,6142,13357,0.625,551
2022-02-09T14:08:45,42.805,6.029,CST-1368DR,4910,6142,13357,0.625,551
2022-02-09T14:11:46,42.805,6.029,CST-1368DR,4910,6142,13357,0.625,551
2022-02-09T14:14:48,42.805,6.029,CST-1368DR,4910,6142,13359,0.624,551
2022-02-09T14:17:49,42.805,6.029,CST-1368DR,4910,6142,13357,0.625,551
2022-02-09T14:20:51,42.805,6.029,CST-1368DR,4910,6142,13357,0.625,551
2022-02-09T14:23:53,42.805,6.029,CST-1368DR,4910,6142,13357,0.625,551
2022-02-09T14:26:54,42.805,6.029,CST-1368DR,4910,6140,13353,0.626,551
2022-02-09T14:29:56,42.805,6.029,CST-1368DR,4910,6141,13356,0.625,551
2022-02-09T14:32:57,42.805,6.029,CST-1368DR,4910,6141,13356,0.625,551
2022-02-09T14:35:59,42.805,6.029,CST-1368DR,4910,6142,13358,0.625,551
2022-02-09T14:39:00,42.805,6.029,CST-1368DR,4910,6141,13356,0.625,551
2022-02-09T14:42:02,42.805,6.029,CST-1368DR,4910,6141,13355,0.626,551
2022-02-09T14:45:04,42.805,6.029,CST-1368DR,4910,6138,13348,0.628,551
2022-02-09T14:48:05,42.805,6.029,CST-1368DR,4910,6142,13357,0.625,551
2022-02-09T14:51:07,42.805,6.029,CST-1368DR,4910,6141,13355,0.626,551
2022-02-09T14:54:08,42.805,6.029,CST-1368DR,4910,6141,13356,0.625,551
2022-02-09T14:57:10,42.805,6.029,CST-1368DR,4910,6142,13358,0.625,550
2022-02-09T15:00:12,42.805,6.029,CST-1368DR,4910,6141,13356,0.625,551
2022-02-09T15:03:13,42.805,6.029,CST-1368DR,4910,6142,13357,0.625,551
2022-02-09T15:06:15,42.805,6.029,CST-1368DR,4910,6139,13352,0.627,551
2022-02-09T15:09:16,42.805,6.029,CST-1368DR,4910,6141,13356,0.625,551
2022-02-09T15:12:18,42.805,6.029,CST-1368DR,4910,6142,13357,0.625,551
2022-02-09T15:15:19,42.805,6.029,CST-1368DR,4910,6142,13357,0.625,551
2022-02-09T15:18:21,42.805,6.029,CST-1368DR,4910,6142,13357,0.625,551
2022-02-09T15:21:23,42.805,6.029,CST-1368DR,4910,6142,13359,0.624,551
2022-02-09T15:24:24,42.805,6.029,CST-1368DR,4910,6142,13359,0.624,551
2022-02-09T15:27:26,42.805,6.029,CST-1368DR,4909,6141,13359,0.624,551
2022-02-09T15:30:27,42.805,6.029,CST-1368DR,4910,6142,13358,0.625,550
2022-02-09T15:33:29,42.805,6.029,CST-1368DR,4909,6139,13354,0.626,551
2022-02-09T15:36:31,42.805,6.029,CST-1368DR,4909,6141,13359,0.624,551
2022-02-09T15:39:32,42.805,6.029,CST-1368DR,4910,6141,13356,0.625,551
2022-02-09T15:42:34,42.805,6.029,CST-1368DR,4909,6141,13358,0.625,551
2022-02-09T15:45:35,42.805,6.029,CST-1368DR,4909,6141,13357,0.625,551
2022-02-09T15:48:37,42.805,6.029,CST-1368DR,4909,6141,13357,0.625,551
2022-02-09T15:51:38,42.805,6.029,CST-1368DR,4910,6141,13355,0.626,551
2022-02-09T15:54:40,42.805,6.029,CST-1368DR,4910,6140,13354,0.626,551
2022-02-09T15:57:42,42.805,6.029,CST-1368DR,4910,6140,13354,0.626,551
2022-02-09T16:00:43,42.805,6.029,CST-1368DR,4910,6140,13353,0.626,551
2022-02-09T16:03:45,42.805,6.029,CST-1368DR,4910,6140,13353,0.626,551
2022-02-09T16:06:46,42.805,6.029,CST-1368DR,4910,6139,13352,0.627,551
2022-02-09T16:09:48,42.805,6.029,CST-1368DR,4910,6138,13349,0.627,551
2022-02-09T16:12:50,42.805,6.029,CST-1368DR,4910,6140,13354,0.626,551
2022-02-09T16:15:51,42.805,6.029,CST-1368DR,4909,6139,13355,0.626,551
2022-02-09T16:18:53,42.805,6.029,CST-1368DR,4909,6139,13355,0.626,551
2022-02-09T16:21:54,42.805,6.029,CST-1368DR,4910,6140,13353,0.626,551
2022-02-09T16:24:56,42.805,6.029,CST-1368DR,4910,6140,13354,0.626,551
2022-02-09T16:27:57,42.805,6.029,CST-1368DR,4910,6140,13353,0.626,550
2022-02-09T16:30:59,42.805,6.029,CST-1368DR,4910,6139,13352,0.627,551
2022-02-09T16:34:01,42.805,6.029,CST-1368DR,4910,6141,13355,0.626,551
2022-02-09T16:37:02,42.805,6.029,CST-1368DR,4910,6140,13353,0.626,551
2022-02-09T16:40:04,42.805,6.029,CST-1368DR,4910,6140,13354,0.626,551
2022-02-09T16:43:05,42.805,6.029,CST-1368DR,4909,6140,13356,0.625,551
2022-02-09T16:46:07,42.805,6.029,CST-1368DR,4909,6138,13351,0.627,551
2022-02-09T16:49:08,42.805,6.029,CST-1368DR,4910,6140,13353,0.626,550
2022-02-09T16:52:10,42.805,6.029,CST-1368DR,4909,6140,13356,0.625,551